斑竹:听风岁月
 标题 作者 点击 回复 回复时间
【成都车展】靓车美女汇集地 潇湘枫雨inertia 81 2 08-29 14:34
成都车展荣威又给我们展示了什么新花样 quarterl一爱一 42 0 08-28 20:59
豪车美女,让你挪不开眼睛! 幻海雨夜衡66 144 3 08-26 22:11
美女如云,成都车展进行中 deviatio心理咨 99 2 08-26 22:11
又来车展了,听说还是规模最大的一次,个人看好改款950 燃瞿33 66 2 08-26 22:10
按耐不住提车的喜悦,说说我的小e migrate船过水无 61 0 08-26 17:40
寻找36D小姐姐,成都车展福利走一遭~ reconcil可爱小 389 0 08-26 16:48
成都车展,带你撩豪车看美女 西楼月如勾尤11 413 2 08-26 14:39
成都车展了,小伙伴们有去围观的没? 暗夜深狱暗夜深5 39 2 08-26 14:38
跟着我走,成都车展看个够 梦花飘雪77 41 2 08-26 14:36
除了新款950还有成都美食 远东二中怀33 52 2 08-26 14:34
i6的用车小感,油耗我还算满意 身体太绕卓00 115 0 08-24 20:41
全是缘分,喜提爱车 fake美好未来何 57 0 08-23 12:02
不得不说荣威i6真的值得购买 墨小调贡_wring 298 0 08-22 20:44
带着朋友自驾游去长白山咯 黄爱飞厍66 74 0 08-22 14:45
保养归来 遭遇倾盆大雨 殇夏无伤11 50 0 08-22 14:45
难得的聚会,深圳车友小聚马峦山 揮霍小advertis 69 0 08-21 21:38
今天看了一下i6觉得挺牛逼的 把酒封杯云nut 77 0 08-21 20:22
从你的世界路过,然后带上i6一起回家! quartz冯绒绒 39 0 08-21 20:10
荣威550 1.8L艾森ECU升级,感受中前段提速惊喜!(转载) kiji2015 104 0 08-21 17:32
卖小车换大车,你们怎么选择的 integritmlml 62 0 08-21 13:07
爱上一座山,爱上一趟旅行 nickname做那最 27 0 08-21 12:12
开着新车出游,心情杠杠的 discours虾嬷嬷 41 0 08-21 12:01
提车荣威i6后有感 就是我韶_wrench 123 0 08-21 11:29
首次带着我的荣威i6做了面膜,保养之后更靓了 marshal柠檬淡茶 68 1 08-21 11:00
今天给大家分享一下我的I6使用初体验 张馨艺_prevalen 49 0 08-21 10:56
荣威RX5使用三个月后的感受 我是恋晨韦22 573 1 08-20 19:12
来自一位荣威RX5车主的用车心得 evaporat我们好 525 0 08-20 19:04
关于荣威RX5,早提早开走! correlat未完待 297 0 08-20 18:53
暑假到了,就让我们驾着爱车荣威I6,一起贵州游 marginaleses 45 0 08-20 18:09
暑假自驾大连游 学习娱乐两不误 champion歌手潘 34 0 08-20 18:00
一些关于荣威i6的小小体验 村落农instabil 59 0 08-20 17:00
提车了,好开心 uproar我是土豆 64 0 08-20 16:54
炫一下我的爱车,求赞! 木头娃娃柳77 35 0 08-20 16:40
有你陪伴真好 rapidity打酱油 29 0 08-19 16:17
提车荣威i6 不一样的体验 晴朗在_depositi 77 0 08-19 16:11
开着i6嗨起来! subscrip小佐 31 0 08-19 16:07
高端大气上档次,低调奢华有内涵 kineticshsh 41 0 08-19 15:54
分享荣威i6的驾驶体验! consulxixi 49 0 08-19 15:50
新的陪伴,我的爱车荣威小六! deposit红莲人形 21 0 08-19 15:45
汽车也需要养护 end土狗刀刀陆 27 1 08-19 15:39
带着我的小6去保养咯 璐过留痕酆_can 21 0 08-19 15:35
终于选到了心仪的车 哈哈呵ascertai 12 0 08-19 15:28
细说一下我家荣威i6给我的点点惊喜! 想忘记应33 32 0 08-19 15:26
荣威i6选车经历 潇湘枫雨inertia 43 0 08-19 15:23
互联网高科技,这就是荣威i6 quarterl一爱一 29 0 08-19 15:15
荣威RX5,我的第一辆新车 obedienttgtg 169 0 08-19 14:43
第一次参加车友会,激动中…… migrate船过水无 32 0 08-19 14:15
难得凑在一起,还不可劲嗨? reconcil可爱小 14 0 08-19 14:10
RX5我心中的女神~终于提车了 deviatio心理咨 114 1 08-18 19:36
荣威入门级紧凑SUV车型RX3将在成都车展亮相 燃瞿33 53 0 08-18 19:31
8月成都车展最期待的就是RX3 幻海雨夜衡66 237 0 08-18 19:28
荣威还是比亚迪,新能源汽车市场谁才是霸主 远东二中怀33 104 1 08-18 19:24
找到了第二个老婆我的爱车i6 梦花飘雪77 21 0 08-18 19:17
网上看了这么多还是实体店看一下吧 西楼月如勾尤11 11 0 08-18 19:14
人生第一辆车选择i6,明智! 暗夜深狱暗夜深5 23 0 08-18 19:10
蛮感兴趣的看了车就提回家了~ 身体太绕卓00 15 0 08-18 19:07
看车之旅,省油的i6我喜欢! fake美好未来何 17 0 08-18 19:03
冲着互联网这种功能去看车 墨小调贡_wring 224 0 08-18 19:00
最终敲定荣威RX5 说说我的看法 黄爱飞厍66 151 0 08-18 16:19
提回来高颜值的荣威RX5 殇夏无伤11 91 0 08-18 16:14
上下班的最佳伴侣——荣威RX5 transact般若风 73 0 08-18 16:09
晒晒我新买的荣威RX5 forersrs 130 0 08-18 16:05
车子到家一个星期 相处融洽的磨合期 把酒封杯云nut 21 0 08-18 16:00
荣威RX3满足了我对选车的基本需求,准备等等看 东海独_generate 73 0 08-18 15:55
期待荣威RX3能早日上市 quartz冯绒绒 40 0 08-18 15:52
一定要挑选一辆自己满意的车子 揮霍小advertis 12 0 08-18 15:50
自主品牌的新能源汽车 小混侠瞿88 24 0 08-18 15:48
新成员成功进驻我家-荣威i6提车记 integritmlml 14 0 08-18 14:44
搞定岳母的搬家利器——值得我骄傲的荣威I6 nickname做那最 44 0 08-18 13:59
策马奔腾,与荣威i6踏上草原之旅! discours虾嬷嬷 28 0 08-18 13:48
简简单单才是真,不要钱的360开着就是爽! 我是恋晨韦22 36 0 08-17 22:30
RX3要在成都车展面世! 就是我韶_wrench 31 0 08-17 20:50
为了环保我选择新能源汽车~ bugle阿迪安娜麻 15 0 08-17 20:46
红色的i6让我着迷~ marshal柠檬淡茶 20 0 08-17 20:33
等了好久好久终于提到我的小6了 张馨艺_prevalen 12 0 08-17 20:30
小学里学的课文《赵州桥》,我见到庐山真面目了 evaporat我们好 25 0 08-17 19:37
荣威RX5——家庭代步车首选 correlat未完待 78 0 08-17 14:23
带着全家回老家避暑~~ marginaleses 21 0 08-17 14:07
其实我也很看好荣威RX3 champion歌手潘 199 0 08-17 14:02